Tracking 20624 objects as of 28-Mar-2020
HD Live streaming from Space Station
objects crossing your sky now

CZ-4 R/B

Track CZ-4 R/B now!
10-day predictions
CZ-4 R/B is classified as:


NORAD ID: 29507
Int'l Code: 2006-046C
Perigee: 538.6 km
Apogee: 606.2 km
Inclination: 97.7 °
Period: 96.0 minutes
Semi major axis: 6943 km
RCS: 4.43 m2 (large)
Launch date: October 23, 2006
Source: People's Republic of China (PRC)
Launch site: Taiyaun Space Center, China (TSC)

Note: This is a ROCKET BODY
aabbcc
Your satellite tracking list
Your tracking list is empty




NASA's NSSDC Master Catalog

Two Line Element Set (TLE):
1 29507U 06046C   20087.53994814 +.00000794 +00000-0 +66338-4 0  9999
2 29507 097.7495 109.6122 0048689 078.8201 281.8490 15.00529298733082
Source of the keplerian elements: AFSPC